User: anonymous   Login
Location: Strawberry
(45.6646°N, 111.9596°W)
Time: 09:51:34
(UTC+00:00)
Language:

RS-15 - Orbit

View from above orbital plane
View from above orbital plane
View from above satellite
View from above satellite

Ground track
Ground track

The orbit data is extracted from the following two-line orbital elements,

1 23439U 94085A   22329.90157753 -.00000039  00000-0  10000-3 0  9999
2 23439  64.8138 244.4830 0167304 245.1050 113.2402 11.27573172149694
Epoch (UTC): 25 November 2022 21:38:16
Eccentricity: 0.0167304
inclination: 64.8138°
perigee height: 1882 km
apogee height: 2163 km
right ascension of ascending node: 244.4830°
argument of perigee: 245.1050°
revolutions per day: 11.27573172
mean anomaly at epoch: 113.2402°
orbit number at epoch: 14969

The dashed part of the orbit path shows where the satellite is in the earth's shadow,  

DLR